Regional Weather Roundup
Issued by NWS

Home | Current Version | Previous Version | Graphics & Text | Print | Product List | Glossary Off
Versions: 1 2 3 4 5 6 7 8 9 10 11 12 13 14 15 16 17 18 19 20 21 22 23 24 25 26 27 28 29 30 31 32 33 34 35 36 37 38 39 40 41 42 43 44 45 46 47 48 49 50

000
ASUS43 KMPX 210701
RWRMN
WEATHER ROUNDUP FOR MINNESOTA
NATIONAL WEATHER SERVICE TWIN CITIES/CHANHASSEN MN
200 AM CDT TUE OCT 21 2014


NOTE: "FAIR" INDICATES FEW OR NO CLOUDS BELOW 12,000 FEET WITH NO
SIGNIFICANT WEATHER AND/OR OBSTRUCTIONS TO VISIBILITY. N/A MEANS
CURRENT SKY AND/OR WEATHER CONDITIONS ARE NOT AVAILABLE.

MNZ060>063-068>070-210800-
   Twin Cities Metro

CITY           SKY/WX    TMP DP  RH WIND       PRES   REMARKS
TWIN CITIES    CLEAR     42  39  89 CALM      30.12R
ST PAUL        CLEAR     39  37  92 CALM      30.13R
CRYSTAL        CLEAR     38  35  89 CALM      30.11R
BLAINE         CLEAR     37  37 100 CALM      30.11R
LAKEVILLE      CLEAR     34  34 100 CALM      30.11R
EDEN PRAIRIE   CLEAR     43  39  86 NE3       30.11R
SOUTH ST PAUL  CLEAR     41  38  89 CALM      30.11R
LAKE ELMO      FAIR      34  34 100 CALM      30.12R
$$
MNZ001>005-007-008-013>017-022>024-027-028-210800-
   Northwest Minnesota

CITY           SKY/WX    TMP DP  RH WIND       PRES   REMARKS
BEMIDJI        CLEAR     36  35  96 S5        30.12R
HALLOCK        CLEAR     41  37  87 SE9       30.05F
ROSEAU         CLEAR     37  34  87 SE8       30.10R
WARROAD        CLEAR     37  34  87 SE8       30.11F
THIEF RVR FALL CLEAR     37  36  93 SE9       30.09S
CROOKSTON      CLEAR     39  37  93 SE9       30.07F
FOSSTON        CLEAR     37  36  93 SE8       30.09S
DETROIT LAKES  CLEAR     41  37  87 SE8       30.10S
MOORHEAD       CLEAR     45  43  93 SE7       30.07R
PARK RAPIDS    CLEAR     37  35  92 E5        30.11S
MAHNOMEN       FAIR      41  38  87 SE9       30.08S
$$
MNZ006-009>011-018-025>026-210800-
   North Central Minnesota

CITY           SKY/WX    TMP DP  RH WIND       PRES   REMARKS
BAUDETTE       CLEAR     34  32  92 SE5       30.13R WCI  30
FLAG ISLAND    CLEAR     43  37  81 SE16      30.11S
INTL FALLS     CLOUDY    41  34  76 E7        30.15R
WASKISH        CLEAR     28  28 100 CALM      30.13R
BIG FORK       CLOUDY    37  36  93 E3        30.14R
LONGVILLE      CLEAR     28  28 100 CALM      30.12S
GRAND RAPIDS   MOCLDY    34  30  86 CALM      30.13R
CRANE LAKE     CLOUDY    39  34  81 CALM      30.18S
ORR            CLOUDY    41  32  70 CALM      30.13S
COOK           CLOUDY    41  36  81 E3        30.16R
WALKER         FAIR      41  37  86 SE6       30.12R
$$
MNZ012-019>021-037-210800-
   Northeast Minnesota

CITY           SKY/WX    TMP DP  RH WIND       PRES   REMARKS
DULUTH         CLOUDY    44  38  79 E17       30.14R
ELY            CLOUDY    39  34  81 CALM      30.16R
HIBBING        CLOUDY    43  35  73 E6        30.14R
EVELETH        MOCLDY    43  34  70 CALM      30.15R
DULUTH HARBOR  CLOUDY    48  43  81 E23       30.15R
TWO HARBORS    CLOUDY    46  28  49 E10       30.15R
SILVER BAY     PTCLDY    43  36  75 E10       30.16R
GRAND MARAIS     N/A     41  32  70 NE8       30.19R
G MARAIS ARPRT CLOUDY    34  28  80 N6        30.16R WCI  29
$$
MNZ029>031-032-039>041-046>048-054>057-064-210800-
   West Central Minnesota

CITY           SKY/WX    TMP DP  RH WIND       PRES   REMARKS
FERGUS FALLS   CLEAR     45  36  70 SE8       30.09S
WHEATON        CLEAR     30  28  93 E9        30.09S WCI  22
MORRIS         CLEAR     39  36  87 E8        30.07S
ALEXANDRIA     CLEAR     41  38  89 E7        30.11R
ELBOW LAKE     FAIR      43  39  84 SE10      30.08S
WADENA         CLEAR     37  36  93 E5        30.11S
GLENWOOD       CLEAR     37  36  93 E7        30.10F
APPLETON       CLEAR     39  37  93 E8        30.08R
BENSON         CLEAR     43  39  87 SE7       30.09R
ORTONVILLE     CLEAR     46  37  71 E7        30.07R
MADISON        CLEAR     41  36  81 CALM      30.07S
WILLMAR        FAIR      45  37  76 E7        30.11S
$$
MNZ033>034-036-042>043-049>051-058-059-210800-
   Central Minnesota

CITY           SKY/WX    TMP DP  RH WIND       PRES   REMARKS
ST CLOUD       CLEAR     38  34  85 NE3       30.12R
SAUK CENTRE    FAIR      37  35  96 E5        30.11S
PAYNESVILLE    CLEAR     36  35  96 CALM      30.11S
AITKIN         CLEAR     30  27  86 CALM      30.12R
PINE RIVER     CLEAR     30  28  93 CALM      30.16R FOG
BRAINERD       CLEAR     33  33 100 CALM      30.13S
STAPLES        CLEAR     36  34  93 CALM      30.12S
LONG PRAIRIE   FAIR      36  36 100 CALM      30.12R
LITTLE FALLS   CLEAR     34  32  93 CALM      30.12S FOG
LITCHFIELD     CLEAR     43  39  87 CALM      30.11S
BUFFALO        CLEAR     38  35  87 CALM      30.13R
MAPLE LAKE     CLEAR     36  35  96 CALM      30.13R
$$
MNZ037-044-045-052-053-210800-
   East Central Minnesota

CITY           SKY/WX    TMP DP  RH WIND       PRES   REMARKS
PRINCETON      CLEAR     36  34  93 CALM      30.13R
MORA           CLEAR     34  32  93 CALM      30.14R
CAMBRIDGE      CLEAR     34  28  80 CALM      30.11R
RUSH CITY      FAIR      35  33  93 CALM      30.12S
MOOSE LAKE     CLOUDY    41  36  81 CALM      30.12R
HINCKLEY       FAIR      34  34 100 CALM      30.13R
CLOQUET        CLOUDY    45  36  70 E7        30.13S
MCGREGOR       CLEAR     32  30  93 CALM      30.13S
$$
MNZ071>073-080-081-089-090-097-098-210800-
   Southwest Minnesota

CITY           SKY/WX    TMP DP  RH WIND       PRES   REMARKS
MONTEVIDEO     CLEAR     39  36  87 SE8       30.09R
GRANITE FALLS  CLEAR     41  36  81 E5        30.10R
CANBY          CLEAR     36  33  89 CALM      30.07S
MARSHALL       CLEAR     36  30  80 CALM      30.06S
REDWOOD FALLS  CLEAR     45  37  73 E7        30.09R
OLIVIA         CLEAR     41  36  81 E6        30.09S
PIPESTONE      CLEAR     45  36  70 SE6       30.06F
WINDOM         CLEAR     36  32  87 CALM      30.09R
WORTHINGTON    CLEAR     37  32  81 CALM      30.09S
JACKSON        CLEAR     37  34  87 CALM      30.09R
TRACY          CLEAR     42  37  80 CALM      30.08S
SLAYTON        CLEAR     38  34  83 CALM      30.09S
$$
MNZ065>067-074>077-082>085-091>093-210800-
   South Central Minnesota

CITY           SKY/WX    TMP DP  RH WIND       PRES   REMARKS
MANKATO        CLEAR     45  36  70 E5        30.10R
NEW ULM        CLEAR     46  39  76 E7        30.09S
ST JAMES       CLEAR     37  34  87 CALM      30.10R
FAIRMONT       CLEAR     39  32  75 CALM      30.09R
GLENCOE        CLEAR     38  37  94 CALM      30.10R
FARIBAULT      CLEAR     34  32  93 CALM      30.11R
OWATONNA       CLEAR     36  34  93 CALM      30.11R
WASECA         CLEAR     41  34  75 E5        30.11S
ALBERT LEA     CLEAR     39  37  93 CALM      30.09R
$$
MNZ078>079-086>088-094>096-210800-
   Southeast Minnesota

CITY           SKY/WX    TMP DP  RH WIND       PRES   REMARKS
ROCHESTER      CLEAR     42  38  85 N5        30.10R
RED WING       CLEAR     37  36  93 CALM      30.10R
STANTON        CLEAR     34  32  92 CALM      30.10R
DODGE CENTER   CLEAR     39  36  87 CALM      30.10R
WINONA         CLEAR     39  37  93 CALM      30.11R
AUSTIN         CLEAR     37  36  93 CALM      30.09R
PRESTON        CLEAR     41  37  85 CALM      30.09R
$$
ABBREVIATIONS USED IN REMARKS
   TC - TEMPERATURES IN CELSIUS
  WCI - WIND CHILL INDEX
   HX - HEAT INDEX
  VSB - VISIBILITY
$$


USA.gov is the U.S. government's official web portal to all federal, state and local government web resources and services.